Time,TemperatureF,DewpointF,PressureIn,WindDirection,WindDirectionDegrees,WindSpeedMPH,WindSpeedGustMPH,Humidity,HourlyPrecipIn,Conditions,Clouds,dailyrainin,SoftwareType,DateUTC
2013-09-01 00:52:00,66.0,60.0,-100.00,NW,325,5.0,7.0,80,0.00,,,-99.99,,2013-09-01 05:52:00,
2013-09-01 01:12:00,66.0,60.0,-100.00,NNW,330,5.0,9.0,80,0.00,,,-99.99,,2013-09-01 06:12:00,
2013-09-01 01:52:00,66.0,60.0,-100.00,NNW,330,6.0,9.0,81,0.00,,,-99.99,,2013-09-01 06:52:00,
2013-09-01 02:12:00,65.0,60.0,-100.00,NW,320,5.0,9.0,83,0.00,,,-99.99,,2013-09-01 07:12:00,
2013-09-01 02:52:00,63.0,59.0,-100.00,NW,325,5.0,7.0,86,0.00,,,-99.99,,2013-09-01 07:52:00,
2013-09-01 03:11:00,62.0,58.0,-100.00,NW,325,6.0,9.0,87,0.00,,,-99.99,,2013-09-01 08:11:00,
2013-09-01 03:52:00,63.0,60.0,-100.00,NNW,330,6.0,9.0,92,0.00,,,-99.99,,2013-09-01 08:52:00,
2013-09-01 04:53:00,63.0,62.0,-100.00,NW,325,4.0,9.0,96,0.00,,,-99.99,,2013-09-01 09:53:00,
2013-09-01 05:12:00,63.0,62.0,-100.00,NW,325,6.0,9.0,96,0.00,,,-99.99,,2013-09-01 10:12:00,
2013-09-01 05:53:00,63.0,62.0,-100.00,NNW,340,6.0,9.0,96,0.00,,,-99.99,,2013-09-01 10:53:00,
2013-09-01 06:12:00,63.0,62.0,-100.00,NW,320,4.0,9.0,96,0.00,,,-99.99,,2013-09-01 11:12:00,
2013-09-01 06:52:00,62.0,61.0,-100.00,NW,325,5.0,19.0,96,0.00,,,-99.99,,2013-09-01 11:52:00,
2013-09-01 07:12:00,61.0,60.0,-100.00,North,355,4.0,9.0,96,0.00,,,-99.99,,2013-09-01 12:12:00,
2013-09-01 08:11:00,58.0,57.0,-100.00,NW,325,6.0,24.0,95,0.00,,,-99.99,,2013-09-01 13:11:00,
2013-09-01 08:52:00,58.0,56.0,-100.00,NNW,340,5.0,20.0,94,0.00,,,-99.99,,2013-09-01 13:52:00,
2013-09-01 09:11:00,58.0,56.0,-100.00,NNW,335,4.0,19.0,93,0.00,,,-99.99,,2013-09-01 14:11:00,
2013-09-01 09:52:00,57.0,54.0,-100.00,NNW,330,4.0,22.0,89,0.00,,,-99.99,,2013-09-01 14:52:00,
2013-09-01 10:11:00,57.0,54.0,-100.00,NNW,330,4.0,20.0,89,0.00,,,-99.99,,2013-09-01 15:11:00,
2013-09-01 10:55:00,58.0,54.0,-100.00,NNW,330,6.0,19.0,88,0.00,,,-99.99,,2013-09-01 15:55:00,
2013-09-01 11:14:00,58.0,54.0,-100.00,NNW,335,5.0,20.0,88,0.00,,,-99.99,,2013-09-01 16:14:00,
2013-09-01 11:53:00,58.0,54.0,-100.00,NNW,340,4.0,9.0,88,0.00,,,-99.99,,2013-09-01 16:53:00,
2013-09-01 12:12:00,59.0,54.0,-100.00,NNW,330,5.0,9.0,86,0.00,,,-99.99,,2013-09-01 17:12:00,
2013-09-01 12:52:00,59.0,54.0,-100.00,NNW,335,5.0,9.0,85,0.00,,,-99.99,,2013-09-01 17:52:00,
2013-09-01 13:12:00,59.0,54.0,-100.00,NNW,335,4.0,9.0,84,0.00,,,-99.99,,2013-09-01 18:12:00,
2013-09-01 13:52:00,59.0,54.0,-100.00,NW,325,5.0,9.0,82,0.00,,,-99.99,,2013-09-01 18:52:00,
2013-09-01 14:12:00,59.0,54.0,-100.00,NW,320,4.0,9.0,81,0.00,,,-99.99,,2013-09-01 19:12:00,
2013-09-01 14:52:00,60.0,53.0,-100.00,NW,325,4.0,9.0,79,0.00,,,-99.99,,2013-09-01 19:52:00,
2013-09-01 15:12:00,60.0,53.0,-100.00,NW,325,5.0,9.0,77,0.00,,,-99.99,,2013-09-01 20:12:00,
2013-09-01 15:52:00,63.0,52.0,-100.00,NNW,330,4.0,9.0,66,0.00,,,-99.99,,2013-09-01 20:52:00,
2013-09-01 16:11:00,59.0,47.0,-100.00,NNE,20,2.0,9.0,64,0.00,,,-99.99,,2013-09-01 21:11:00,
2013-09-01 16:55:00,69.0,54.0,-100.00,NNW,335,4.0,9.0,59,0.00,,,-99.99,,2013-09-01 21:55:00,
2013-09-01 17:14:00,69.0,54.0,-100.00,NW,325,6.0,9.0,58,0.00,,,-99.99,,2013-09-01 22:14:00,
2013-09-01 17:53:00,71.0,54.0,-100.00,NW,315,4.0,9.0,55,0.00,,,-99.99,,2013-09-01 22:53:00,
2013-09-01 18:12:00,66.0,49.0,-100.00,NNW,330,5.0,9.0,53,0.00,,,-99.99,,2013-09-01 23:12:00,
2013-09-01 18:53:00,72.0,53.0,-100.00,North,5,2.0,7.0,50,0.00,,,-99.99,,2013-09-01 23:53:00,
2013-09-01 19:11:00,71.0,52.0,-100.00,North,350,5.0,9.0,51,0.00,,,-99.99,,2013-09-02 00:11:00,
2013-09-01 19:52:00,67.0,51.0,-100.00,North,0,4.0,9.0,55,0.00,,,-99.99,,2013-09-02 00:52:00,
2013-09-01 20:12:00,67.0,51.0,-100.00,NNW,330,2.0,8.0,56,0.00,,,-99.99,,2013-09-02 01:12:00,
2013-09-01 20:52:00,63.0,52.0,-100.00,North,5,2.0,5.0,65,0.00,,,-99.99,,2013-09-02 01:52:00,
2013-09-01 21:12:00,63.0,52.0,-100.00,NNW,340,2.0,6.0,66,0.00,,,-99.99,,2013-09-02 02:12:00,
2013-09-01 21:52:00,62.0,51.0,-100.00,NNW,340,2.0,6.0,68,0.00,,,-99.99,,2013-09-02 02:52:00,
2013-09-01 22:11:00,61.0,51.0,-100.00,North,0,2.0,7.0,68,0.00,,,-99.99,,2013-09-02 03:11:00,
2013-09-01 22:56:00,60.0,51.0,-100.00,NE,45,1.0,7.0,71,0.00,,,-99.99,,2013-09-02 03:56:00,
2013-09-01 23:14:00,60.0,51.0,-100.00,NNE,15,1.0,6.0,72,0.00,,,-99.99,,2013-09-02 04:14:00,
2013-09-01 23:54:00,57.0,51.0,-100.00,NNE,30,1.0,4.0,79,0.00,,,-99.99,,2013-09-02 04:54:00,